sat.trackr.live / text

‹ back to catalog

STARLINK-32022

NORAD 60149 · 2024-120Q

PAYLOAD ACTIVE UNKNOWN

§ Identity

Operator
Country
US
Launch date
2024-06-27
Launch site
AFETR
Launch vehicle
Mass (kg)
RCS (m²)

Purposes: comms

External: N2YO · Heavens-Above · Gunter

§ Orbital elements

Epoch: 2026-09-21T21:30:58.846752Z

Period
93.85 min
Inclination
53.1598°
Eccentricity
0.0001331
Mean motion
15.34392213 rev/d
Perigee alt
461.8 km
Apogee alt
463.6 km
Semi-major
6,840.9 km
B*
-1.3704e-5
RAAN
125.2064°
Arg perigee
89.7352°
Mean anomaly
270.3803°
Rev number
12,654

§ Raw data

STARLINK-320221 60149U 24120Q   26264.89651443 -.00000839  00000+0 -13704-4 0  99992 60149  53.1598 125.2064 0001331  89.7352 270.3803 15.34392213126549

JSON: /api/v1/satellites/60149 · /tle

For live sub-satellite position, see the globe view (requires WebGL).

§ Visibility from observer

Set your observer location to see the next 7 days of passes ≥ 10°. The values pass through the URL so the page stays shareable.

No JS? Fill the form by hand. The geolocation button needs JavaScript.